User: anonymous   Login
Location: Beuvrequen
(50.8014°N, 1.6652°E)
Time: 10:45:59
(UTC+00:00)
Language:

IRAS dewar cover - Orbit

View from above orbital plane
View from above orbital plane
View from above satellite
View from above satellite

Ground track
Ground track

The orbit data is extracted from the following two-line orbital elements,

1 13783U 83004C   22229.15807937  .00000165  00000-0  13152-3 0  9991
2 13783  98.9471  50.1751 0015785 246.7051 231.9418 14.04105536 23666
Epoch (UTC): 17 August 2022 03:47:38
Eccentricity: 0.0015785
inclination: 98.9471°
perigee height: 868 km
apogee height: 891 km
right ascension of ascending node: 50.1751°
argument of perigee: 246.7051°
revolutions per day: 14.04105536
mean anomaly at epoch: 231.9418°
orbit number at epoch: 2366

The dashed part of the orbit path shows where the satellite is in the earth's shadow,  

DLR